This is the latest recevied weather packets stored in our database for station/object K6POO-1. If no packets are shown the sender has not sent any weather packets the latest 10 day(s).
| Time | Temp. | Humidity | Pressure | Rain* | Wind** | Luminosity | Snow |
|---|---|---|---|---|---|---|---|
| 1778091381 | 17.22° C | 72% | 1021 hPa | 0 mm | - | 951 W/m² | - |
| 1778091078 | 17.22° C | 70% | 1021 hPa | 0 mm | - | 329 W/m² | - |
| 1778090775 | 17.78° C | 69% | 1020.9 hPa | 0 mm | - | 389 W/m² | - |
| 1778090471 | 17.78° C | 68% | 1020.6 hPa | 0 mm | - | 380 W/m² | - |
| 1778090167 | 17.78° C | 69% | 1020.9 hPa | 0 mm | - | 689 W/m² | - |
| 1778089863 | 17.78° C | 70% | 1020.7 hPa | 0 mm | - | 617 W/m² | - |
| 1778089562 | 17.78° C | 69% | 1020.8 hPa | 0 mm | - | 557 W/m² | - |
| 1778089258 | 17.78° C | 68% | 1020.8 hPa | 0 mm | - | 965 W/m² | - |
| 1778088956 | 17.22° C | 69% | 1020.7 hPa | 0 mm | - | 927 W/m² | - |
| 1778088653 | 17.78° C | 69% | 1020.8 hPa | 0 mm | - | 877 W/m² | - |
| 1778088350 | 17.22° C | 71% | 1020.8 hPa | 0 mm | - | 851 W/m² | - |
| 1778088045 | 16.67° C | 73% | 1020.8 hPa | 0 mm | - | 425 W/m² | - |
| 1778087743 | 16.67° C | 71% | 1021.1 hPa | 0 mm | - | 295 W/m² | - |
| 1778087440 | 16.67° C | 71% | 1021 hPa | 0 mm | - | 375 W/m² | - |
| 1778087138 | 16.67° C | 72% | 1020.9 hPa | 0 mm | - | 887 W/m² | - |
| 1778086836 | 16.11° C | 74% | 1021.1 hPa | 0 mm | - | 466 W/m² | - |
| 1778086533 | 15.56° C | 74% | 1021.2 hPa | 0 mm | - | 563 W/m² | - |
| 1778086224 | 16.11° C | 74% | 1021.1 hPa | 0 mm | - | 469 W/m² | - |
| 1778085921 | 16.11° C | 73% | 1020.8 hPa | 0 mm | - | 245 W/m² | - |
| 1778085619 | 16.67° C | 71% | 1021 hPa | 0 mm | - | 325 W/m² | - |
| 1778085315 | 16.11° C | 73% | 1021 hPa | 0 mm | - | 676 W/m² | - |
| 1778085010 | 15.56° C | 74% | 1021.2 hPa | 0 mm | - | 369 W/m² | - |
| 1778084707 | 15.56° C | 74% | 1021.1 hPa | 0 mm | - | 327 W/m² | - |
| 1778084403 | 15.56° C | 75% | 1021 hPa | 0 mm | - | 298 W/m² | - |
| 1778084101 | 15.56° C | 76% | 1021 hPa | 0 mm | - | 255 W/m² | - |
* Rain latest hour (hover to see other rain measurements)
** Current wind speed in m/s (hover to see current wind gust speed)